Belize, Belize

12:24 AM CST on October 19, 2017 (GMT -0600)
Philip S W Goldson International

Weather History for MZBZ - November, 2012

Change the Weather History Date:

Wednesday, November 14, 2012

  Actual Average Record
Temperature  
Mean Temperature 77 °F -  
Max Temperature 86 °F 84 °F 91 °F (1997)
Min Temperature 68 °F 70 °F 68 °F (1999)
Cooling Degree Days 12    
Growing Degree Days 27 (Base 50)    
Moisture  
Dew Point 71 °F    
Average Humidity 78    
Maximum Humidity 97    
Minimum Humidity 59    
Precipitation  
Precipitation 0.00 in 0.24 in - ()
Sea Level Pressure  
Sea Level Pressure 30.03 in    
Wind  
Wind Speed 4 mph ()    
Max Wind Speed 9 mph    
Max Gust Speed -    
Visibility 8.1 miles    
Events Rain    
Averages and records for this station are not official NWS values.
T = Trace of Precipitation, MM = Missing Value Source: Averaged Metar Reports

Daily Weather History Graph

Daily Weather History Graph

Search for Another Location

Airport or City:

Trip Planner

Search our weather history database for the weather conditions in past years. The results will help you decide how hot, cold, wet, or windy it might be!

Date:

Astronomy

Nov. 14, 2012 Rise Set
Actual Time 5:58 AM CST 5:17 PM CST
Civil Twilight 5:35 AM CST 5:39 PM CST
Nautical Twilight 5:09 AM CST 6:06 PM CST
Astronomical Twilight 4:42 AM CST 6:32 PM CST
Moon 6:39 AM CST (11/14) 6:13 PM CST (11/14)
Length of Visible Light 12h 04m
Length of Day
11h 19m
New Moon, 1% of the Moon is Illuminated
Nov 14
New Moon
Nov 20
First Quarter
Nov 28
Full
Dec 6
Last Quarter
Dec 13
New

Hourly Weather History & Observations

Time (CST) Temp. Heat Index Dew Point Humidity Pressure Visibility Wind Dir Wind Speed Gust Speed Precip Events Conditions
12:00 AM 71 °F - 69 °F 93% 30.03 in 12 mi Calm Calm - -   Scattered Clouds
3:00 AM 69 °F - 68 °F 97% 30.00 in 12 mi Calm Calm - -   Scattered Clouds
5:00 AM 69.8 °F - 68.0 °F 94% 30.01 in 6.2 mi West 5.8 mph - N/A   Mostly Cloudy
6:00 AM 71 °F - 69 °F 90% 30.05 in 9 mi West 4.6 mph - - Rain Light Rain Showers
6:00 AM 69.8 °F - 68.0 °F 94% 30.04 in 6.2 mi West 4.6 mph - N/A Rain Light Rain Showers
7:00 AM 71.6 °F - 69.8 °F 94% 30.06 in 6.2 mi WSW 4.6 mph - N/A   Mostly Cloudy
8:00 AM 73.4 °F - 69.8 °F 88% 30.06 in 6.2 mi West 6.9 mph - N/A   Partly Cloudy
9:00 AM 76 °F - 71 °F 80% 30.09 in 12 mi WNW 8.1 mph - -   Partly Cloudy
9:00 AM 77.0 °F - 71.6 °F 83% 30.09 in 6.2 mi WNW 8.1 mph - N/A   Partly Cloudy
10:00 AM 80.6 °F 85.4 °F 73.4 °F 79% 30.07 in 6.2 mi WNW 9.2 mph - N/A   Partly Cloudy
11:00 AM 82.4 °F 87.2 °F 71.6 °F 70% 30.06 in 6.2 mi WNW 8.1 mph - N/A   Scattered Clouds
12:00 PM 83 °F - 71 °F 59% 30.04 in 12 mi NNW 8.1 mph - -   Mostly Cloudy
12:00 PM 84.2 °F 89.6 °F 71.6 °F 66% 30.03 in 6.2 mi NNW 8.1 mph - N/A   Scattered Clouds
1:00 PM 86.0 °F 91.8 °F 71.6 °F 62% 30.00 in 6.2 mi NW 6.9 mph - N/A   Scattered Clouds
2:00 PM 84.2 °F 89.6 °F 71.6 °F 66% 29.98 in 6.2 mi ENE 5.8 mph - N/A   Mostly Cloudy
3:00 PM 83 °F - 71 °F 59% 29.98 in 15 mi ENE 9.2 mph - -   Partly Cloudy
3:00 PM 84.2 °F 89.6 °F 71.6 °F 66% 29.98 in 6.2 mi ENE 9.2 mph - N/A   Scattered Clouds
4:00 PM 84.2 °F 88.4 °F 69.8 °F 62% 29.98 in 6.2 mi NE 6.9 mph - N/A   Partly Cloudy
5:00 PM 82.4 °F 87.2 °F 71.6 °F 70% 29.99 in 6.2 mi North 3.5 mph - N/A   Partly Cloudy
6:00 PM 80.6 °F 84.6 °F 71.6 °F 74% 30.01 in 6.2 mi NE 4.6 mph - N/A   Partly Cloudy
9:00 PM 75 °F - 72 °F 89% 30.06 in 12 mi Calm Calm - -   Scattered Clouds